sat.trackr.live / text

‹ back to catalog

STARLINK-4036

NORAD 52837 · 2022-062H

PAYLOAD ACTIVE UNKNOWN

§ Identity

Operator
Country
US
Launch date
2022-06-17
Launch site
AFETR
Launch vehicle
Mass (kg)
RCS (m²)

Purposes: comms

External: N2YO · Heavens-Above · Gunter

§ Orbital elements

Epoch: 2026-05-25T02:54:33.961824Z

Period
95.44 min
Inclination
53.2133°
Eccentricity
0.0001865
Mean motion
15.08844401 rev/d
Perigee alt
538.4 km
Apogee alt
541.0 km
Semi-major
6,917.9 km
B*
-5.1986e-6
RAAN
51.0054°
Arg perigee
92.3231°
Mean anomaly
267.7974°
Rev number
21,732

§ Raw data

STARLINK-40361 52837U 22062H   26145.12122641 -.00000371  00000+0 -51986-5 0  99902 52837  53.2133  51.0054 0001865  92.3231 267.7974 15.08844401217321

JSON: /api/v1/satellites/52837 · /tle

For live sub-satellite position, see the globe view (requires WebGL).

§ Visibility from observer

Set your observer location to see the next 7 days of passes ≥ 10°. The values pass through the URL so the page stays shareable.

No JS? Fill the form by hand. The geolocation button needs JavaScript.